Theta_e
301 295 292 291 291 292 291 289 289 293 294 290 290 292 295 297 297 296 295 296 298 300 303 303 301 299 298 297 296 296 296 296 298 300 300 300 296 295 293 292 292 292 293 294
296 293 294 295 294 292 292 290 290 292 294 292 291 291 295 295 295 297 296 296 297 299 301 302 300 298 297 296 295 294 295 294 296 297 300 299 297 294 292 292 290 291 292 293
293 295 296 295 293 292 292 290 288 288 292 293 290 288 292 294 294 296 296 299 300 299 299 300 299 296 295 295 293 294 294 293 293 295 298 299 297 294 292 289 289 289 290 291
295 295 294 293 293 292 288 292 292 290 287 282 289 280 289 292 292 294 295 295 296 299 301 301 299 296 296 295 294 293 293 292 291 291 293 293 292 291 288 287 288 288 289 289
296 293 292 293 294 293 291 292 290 290 286 285 286 281 288 290 290 291 293 295 296 299 299 299 298 298 297 296 292 291 291 291 290 289 289 289 287 288 287 287 287 287 287 288
294 296 294 293 294 292 293 291 291 289 286 280 286 284 285 289 291 291 293 294 297 298 298 300 300 299 297 294 292 290 290 289 289 288 288 288 287 286 286 285 285 285 286 286
295 294 294 293 290 292 291 289 283 281 280 281 286 282 286 292 293 293 292 293 295 297 297 297 297 296 295 292 292 291 289 288 288 287 287 287 287 286 285 284 283 285 284 284
288 287 292 293 291 288 289 287 282 279 279 281 285 280 287 293 294 294 294 294 296 296 297 297 297 296 295 293 292 290 289 287 287 287 286 286 286 285 285 284 284 283 284 283
289 290 291 292 292 292 288 284 288 284 285 280 283 287 291 293 293 293 292 293 292 293 295 296 297 296 294 293 292 291 289 288 287 286 286 285 285 284 284 283 283 284 284 286
292 287 292 289 291 290 288 290 284 284 279 279 283 285 286 289 291 293 292 293 294 294 294 294 294 294 293 293 293 291 289 288 287 286 285 285 284 285 285 285 284 283 283 283
292 290 288 290 287 288 284 285 286 287 287 281 279 283 294 293 294 293 293 295 293 294 292 291 288 288 288 289 290 289 288 287 286 286 285 284 284 285 285 284 284 283 283 283
292 290 285 290 290 291 288 287 288 283 283 285 284 284 294 294 295 297 296 297 295 294 290 288 287 286 285 286 286 287 286 285 284 284 285 285 285 284 283 284 284 283 282 283
292 288 283 286 287 291 288 291 291 290 287 283 282 284 294 295 295 293 293 293 294 289 288 286 284 283 283 284 285 285 285 286 286 285 284 284 284 283 283 283 284 284 283 282
295 289 288 285 289 292 287 289 292 289 283 285 285 287 292 292 290 288 288 291 288 285 285 284 283 282 282 283 284 285 286 286 286 285 283 283 284 283 284 285 284 284 283 282
292 284 289 290 292 293 292 291 292 288 288 285 287 289 292 287 285 285 286 287 285 284 284 283 283 283 282 283 283 284 284 284 284 284 283 283 284 285 284 284 283 283 283 282
292 286 287 287 291 291 289 291 292 291 292 290 290 289 290 288 285 283 283 284 282 281 282 282 282 281 281 281 282 283 282 283 283 283 282 284 283 283 283 282 281 281 281 281
288 286 284 283 290 289 285 289 290 291 287 287 286 281 283 282 280 279 280 281 280 280 281 280 280 280 280 281 282 281 281 282 282 282 282 282 283 282 281 281 281 279 279 279
289 287 286 284 286 278 286 288 287 280 278 279 280 279 280 281 280 280 280 279 279 279 279 279 279 280 280 281 281 281 282 281 281 281 281 281 281 280 280 279 278 278 278 277
296 291 285 282 283 287 288 280 281 282 274 276 276 277 277 280 281 277 280 280 279 279 279 279 280 280 280 279 279 279 279 280 280 280 280 281 281 279 279 278 278 277 277 276
291 295 287 284 279 277 276 278 281 281 273 275 276 274 274 277 275 274 278 279 278 279 278 278 278 278 276 274 276 276 277 277 277 279 278 278 278 278 277 277 276 276 276 276
283 285 284 285 283 278 273 275 279 276 271 275 275 274 274 272 274 276 278 277 277 277 277 278 277 276 276 275 274 274 274 275 276 277 277 277 277 276 276 275 274 274 273 274
286 284 282 284 281 278 274 276 273 272 275 274 274 274 273 273 273 274 275 274 275 274 275 275 274 273 275 275 274 273 273 276 277 275 274 274 274 275 276 274 273 273 272 270
285 280 279 274 271 273 274 273 274 274 273 273 272 272 272 272 272 273 272 272 271 271 273 274 272 272 273 274 274 274 274 273 273 273 272 272 273 274 275 273 272 272 271 271
277 276 275 273 271 272 272 273 274 274 270 273 273 272 272 271 270 269 270 270 271 271 271 271 271 270 270 271 273 271 272 272 271 270 269 270 270 271 272 273 273 272 271 270
270 274 274 270 271 271 271 271 270 270 270 269 270 270 271 270 268 268 268 269 270 270 271 271 270 270 270 270 270 271 272 270 270 269 269 270 271 270 271 272 272 271 272 272
269 267 268 265 266 268 268 270 270 266 267 268 269 269 268 268 268 268 268 268 269 269 270 269 269 269 269 269 269 270 270 269 268 268 269 268 270 269 270 270 270 275 277 278
Wind_Speed
4 1 2 5 3 4 4 6 9 6 4 4 8 16 16 9 9 9 9 8 9 10 10 10 9 8 7 5 4 4 4 3 3 2 1 2 3 3 4 4 6 6 7 8
2 4 5 3 1 3 6 9 8 1 3 5 7 21 14 2 4 10 11 9 7 8 9 11 9 8 8 7 6 6 5 3 3 1 2 1 3 3 4 3 5 6 6 6
4 2 4 1 5 7 7 7 3 4 8 9 7 9 4 1 2 4 3 7 7 9 10 11 10 9 8 8 8 7 6 5 3 1 1 1 2 1 2 3 3 4 6 6
5 3 2 4 6 2 5 5 4 7 7 4 4 7 5 6 5 6 7 5 6 7 8 11 11 9 9 8 8 7 7 6 4 2 1 0 1 2 1 2 2 3 6 6
4 4 4 4 3 3 2 2 6 4 4 6 2 1 7 4 3 3 10 11 10 8 9 10 10 10 8 8 8 7 7 5 5 3 3 3 4 3 3 2 3 3 4 6
3 2 2 2 1 2 7 6 9 6 1 2 5 5 7 2 5 3 4 7 10 10 8 8 8 8 7 8 8 7 7 5 5 4 3 5 6 4 3 3 3 3 2 4
5 4 3 0 3 2 3 4 5 3 1 7 4 1 11 2 6 4 4 5 8 9 8 7 8 7 7 8 8 7 7 6 6 5 4 5 6 6 5 3 2 3 2 2
3 6 7 7 2 1 2 1 4 6 3 7 6 7 8 6 8 6 5 4 6 6 7 8 9 8 8 8 8 8 7 7 7 6 5 4 4 3 3 3 2 2 2 1
4 5 2 1 2 1 3 4 1 4 5 5 6 6 5 8 6 5 4 4 4 5 4 7 8 7 7 7 8 7 7 5 6 6 6 5 3 4 4 3 2 2 3 2
3 7 3 3 1 3 3 3 1 0 5 7 4 6 3 5 6 5 2 6 7 7 6 6 7 6 5 4 6 8 7 7 6 6 6 6 5 5 3 3 3 3 2 1
4 5 2 5 7 7 3 3 4 1 4 4 5 5 5 6 7 6 4 4 4 7 9 8 8 8 8 8 4 5 5 5 6 5 4 5 5 5 4 3 3 1 1 3
2 4 5 8 4 5 2 2 7 4 3 3 3 8 6 9 7 7 8 12 8 11 12 11 9 8 8 7 7 6 4 4 5 5 4 5 3 4 4 2 1 1 3 4
4 5 5 5 2 3 2 2 3 3 2 10 8 8 4 9 11 11 12 12 9 12 13 12 13 12 11 10 10 9 8 7 6 4 3 4 5 5 5 5 2 2 1 3
4 5 8 15 13 2 4 7 8 12 6 8 14 23 14 12 13 15 15 12 17 16 15 13 11 9 7 6 6 6 5 3 3 5 5 3 2 2 2 3 2 1 1 3
2 8 9 12 14 15 22 21 20 15 20 14 19 16 14 11 11 13 12 14 15 14 13 11 9 7 6 7 6 6 6 7 7 4 4 6 4 2 3 3 3 3 2 3
1 5 2 11 12 18 24 21 22 23 25 22 24 21 8 9 11 13 13 12 13 12 11 10 8 7 7 6 6 6 5 4 4 5 4 4 2 4 3 2 4 4 4 4
6 4 3 16 6 8 13 15 18 14 8 6 6 7 10 11 11 10 10 11 12 10 8 6 6 5 5 6 6 5 5 5 5 5 5 3 2 3 3 2 4 4 5 5
8 5 4 11 4 12 3 14 13 17 13 14 10 11 10 9 8 9 9 8 8 8 8 5 5 6 5 5 6 6 5 5 5 4 4 4 4 4 4 4 5 5 4 5
18 11 5 6 8 11 7 8 7 4 7 12 11 12 12 12 7 10 10 7 7 6 5 6 7 6 5 5 6 7 6 5 5 5 5 4 4 4 4 5 5 5 4 4
1 14 8 3 5 7 6 8 10 6 3 10 10 11 12 11 3 3 11 9 8 7 6 6 7 6 4 4 5 6 7 5 5 4 4 5 5 5 5 5 5 4 4 5
3 2 13 12 7 3 8 14 9 4 3 7 7 6 8 4 4 6 9 8 6 7 7 7 5 6 5 5 4 5 6 6 5 5 5 5 6 6 6 6 4 4 5 7
4 5 4 4 6 7 13 6 4 1 4 4 5 6 6 5 6 6 8 8 8 7 7 7 5 5 6 6 3 6 6 6 6 6 6 6 6 6 7 6 5 6 6 6
5 2 0 2 2 4 6 11 6 5 3 3 4 4 5 6 7 9 8 7 6 6 7 6 5 6 6 7 6 6 6 6 6 6 7 7 8 9 9 8 7 7 5 5
4 4 3 4 4 5 7 7 6 4 3 5 6 2 5 6 6 6 6 7 7 5 7 5 6 7 8 6 9 7 8 7 6 7 7 7 6 9 8 7 7 7 6 6
3 6 3 4 4 6 6 6 5 5 5 4 6 4 5 5 6 6 7 8 7 8 8 7 8 9 10 9 9 8 10 7 8 8 7 8 8 8 9 9 7 7 7 7
4 3 2 2 2 2 4 5 6 4 2 3 6 6 5 4 6 5 7 6 8 8 9 10 10 11 12 11 11 10 7 7 7 8 8 7 8 6 8 8 7 15 21 23
Wind_Direction
162 289 248 59 38 345 315 291 284 291 94 326 251 272 275 261 198 198 199 217 192 188 176 161 153 153 165 166 169 141 102 76 31 41 69 54 80 64 56 59 35 23 25 7
215 241 82 80 330 283 279 269 283 351 147 317 298 294 284 251 240 186 191 206 220 165 153 154 150 160 180 178 178 142 135 116 96 43 90 58 72 103 117 83 67 35 39 19
273 101 120 228 266 259 273 279 357 297 321 278 309 276 164 129 341 28 73 179 200 186 164 159 167 174 182 192 168 168 153 148 123 95 135 150 116 124 87 54 55 44 47 30
262 112 225 262 262 204 291 32 350 310 354 297 86 286 291 145 198 184 195 193 228 193 157 162 174 180 185 187 164 157 156 156 136 140 185 137 112 104 92 100 87 80 58 43
249 183 208 250 265 94 300 344 266 277 290 305 252 134 267 149 162 193 195 181 191 188 171 176 179 183 184 161 157 156 156 155 137 140 107 123 106 106 139 113 110 90 77 63
267 99 258 333 29 223 338 293 253 186 191 296 215 156 283 183 153 116 31 171 170 170 179 172 168 164 164 138 145 159 159 164 141 128 118 107 114 110 106 63 86 83 60 62
168 196 121 350 261 141 236 318 321 338 302 230 151 254 237 234 157 110 113 359 155 152 165 176 164 161 153 156 160 162 161 159 148 146 108 102 115 114 118 104 95 81 45 19
249 302 179 167 256 82 285 164 189 276 285 282 133 238 254 123 97 80 68 29 85 144 172 169 167 168 169 164 168 177 165 164 161 156 145 138 134 134 121 125 145 111 123 155
307 227 121 186 80 138 131 209 342 301 267 272 225 249 337 123 117 141 165 150 201 202 204 181 167 163 169 162 169 169 157 154 164 155 148 156 143 108 126 134 115 103 71 15
334 301 155 107 174 233 202 351 253 209 284 273 255 284 219 114 128 131 151 225 223 187 156 82 70 71 64 131 144 142 152 167 165 157 149 144 135 111 96 64 68 46 50 55
341 195 172 131 200 182 149 228 206 311 205 250 314 273 139 144 109 88 354 347 47 185 132 107 77 56 37 25 66 129 137 154 144 142 140 133 144 145 160 179 151 163 295 265
185 295 261 237 94 74 43 263 177 157 207 239 273 256 55 111 110 36 34 21 12 67 86 81 72 67 54 42 29 36 65 75 106 102 106 107 171 165 162 149 120 4 335 335
186 233 302 293 116 53 37 331 230 131 223 223 247 261 174 104 52 41 25 16 7 85 80 67 53 45 36 29 23 25 34 30 29 55 134 213 196 189 192 165 153 242 331 330
356 254 225 254 265 26 217 235 227 214 216 260 230 267 274 16 35 28 22 5 67 62 56 58 50 42 29 24 20 13 18 346 270 218 227 222 215 222 194 137 184 278 302 307
278 253 254 266 285 291 275 274 261 233 240 240 265 256 295 47 52 29 17 35 54 52 48 44 41 42 32 23 16 10 6 8 3 337 277 259 189 66 347 352 335 320 276 262
315 272 296 270 257 260 267 263 261 251 253 241 254 265 30 53 54 38 29 30 37 36 34 34 31 27 24 17 359 3 354 346 342 301 299 272 146 191 189 260 288 279 281 273
186 206 208 275 263 315 277 251 247 251 49 326 260 46 20 31 55 42 36 34 31 22 24 24 20 22 15 1 347 346 338 320 287 286 306 315 297 305 302 271 272 274 269 269
197 185 198 279 290 261 141 39 75 98 50 25 40 35 26 11 91 68 45 25 17 7 11 5 9 358 357 353 349 330 321 305 293 297 301 316 301 284 281 282 276 276 274 275
224 219 231 242 231 281 240 33 20 26 66 28 15 16 5 338 144 64 40 40 18 4 357 5 1 341 337 352 336 313 306 300 314 306 305 313 306 297 290 282 273 272 276 277
8 225 210 211 241 247 45 343 334 292 151 22 16 12 357 348 19 46 10 21 14 0 7 350 350 339 340 324 320 317 315 315 310 324 316 314 301 291 282 278 278 274 276 270
144 224 229 235 261 106 336 310 309 199 50 34 29 18 357 14 1 354 1 2 1 358 342 347 341 326 314 295 287 302 304 306 303 303 302 294 286 282 274 272 279 280 272 267
200 209 203 201 233 233 341 59 56 26 49 21 35 12 346 342 340 351 350 347 346 340 344 338 324 309 302 294 277 287 293 301 319 311 304 293 287 283 281 270 266 271 268 268
210 327 346 44 38 106 24 85 74 39 33 6 356 10 340 339 345 341 336 330 327 330 328 316 306 298 296 295 303 288 289 301 295 294 290 284 288 289 289 282 274 273 264 264
97 355 86 151 134 110 105 90 64 54 30 2 347 316 332 332 328 328 323 320 323 318 314 301 309 304 304 313 321 309 315 316 305 293 288 287 284 284 276 273 271 267 259 255
345 329 59 79 87 112 85 76 51 37 26 356 333 339 337 344 329 321 320 316 314 312 312 317 310 311 316 322 314 306 308 307 300 291 290 290 287 278 278 271 265 262 261 250
356 21 326 127 71 328 95 85 44 40 345 321 321 335 325 337 309 308 302 294 306 304 327 318 318 317 310 310 309 306 304 304 299 297 294 287 291 289 287 284 280 273 279 276